Date String (YYYY-MM-DD hh:mm:ss) UTC,Instrument flags,Ambient pressure (hPa),Sample flow (lpm),Bypass flow (lpm),Sample temperature (°C),Ambient temperature (°C),ASC tube jacket temperature (°C),LED temperature (°C),Box temperature (°C),Sample RH (%),Span deviation,Mass concentration (μg/m³),Mass concentration (μg/m³),Mass concentration (μg/m³)
DateTimeUTC,F1_M11,P_M11,Q1_M11,Q2_M11,T1_M11,T2_M11,T3_M11,T4_M11,T5_M11,U1_M11,ZSPAN_M11,X2_M11,X0_M11,X1_M11
2021-08-31 16:00:00,,0824.1,4.99,0.00,29.7,28.6,00.0,38.7,31.5,15.9,0002.4,0020.13,0036.57,0018.25
2021-08-31 16:01:00,,0824.1,5.01,0.00,29.7,27.5,00.0,38.7,31.3,15.3,0002.6,0020.14,0036.19,0018.27
2021-08-31 16:02:00,,0824.2,5.01,0.00,29.6,26.3,00.0,38.6,30.9,14.9,0002.6,0020.03,0035.22,0018.23
2021-08-31 16:03:00,,0824.1,5.00,0.00,29.5,26.5,00.0,38.6,31.0,15.1,0002.5,0019.91,0034.85,0018.20
2021-08-31 16:04:00,,0824.1,4.99,0.00,29.4,26.9,00.0,38.6,31.0,14.3,0002.7,0019.76,0035.37,0018.15
2021-08-31 16:05:00,,0824.1,5.01,0.00,29.4,27.3,00.0,38.6,31.1,15.1,0002.9,0019.62,0034.45,0018.11
2021-08-31 16:06:00,,0824.1,5.00,0.00,29.5,27.7,00.0,38.6,31.2,15.5,0003.1,0019.55,0034.25,0018.09
2021-08-31 16:07:00,,0824.2,4.99,0.00,29.5,28.0,00.0,38.6,31.3,15.2,0002.9,0019.47,0033.11,0018.11
2021-08-31 16:08:00,,0824.1,5.02,0.00,29.6,28.3,00.0,38.6,31.4,15.9,0002.7,0019.41,0030.29,0018.15
2021-08-31 16:09:00,,0824.2,5.00,0.00,29.6,28.5,00.0,38.6,31.5,17.4,0002.6,0019.31,0029.84,0018.15
2021-08-31 16:10:00,,0824.1,4.99,0.00,29.7,28.7,00.0,38.6,31.5,18.3,0002.3,0019.32,0029.95,0018.21
2021-08-31 16:11:00,,0824.1,5.00,0.00,29.7,27.8,00.0,38.6,31.3,19.8,0002.2,0019.47,0030.09,0018.35
2021-08-31 16:12:00,,0824.1,4.99,0.00,29.5,26.3,00.0,38.6,30.9,19.1,0002.1,0019.64,0031.71,0018.54
2021-08-31 16:13:00,,0824.1,5.01,0.00,29.4,26.4,00.0,38.6,30.9,17.9,0002.2,0019.88,0032.57,0018.79
2021-08-31 16:14:00,,0824.1,5.00,0.00,29.4,26.8,00.0,38.6,31.0,18.4,0002.3,0020.18,0032.87,0019.06
2021-08-31 16:15:00,,0824.1,5.00,0.00,29.4,27.3,00.0,38.5,31.1,18.1,0002.5,0020.49,0032.97,0019.32
2021-08-31 16:16:00,,0824.1,5.00,0.00,29.4,27.6,00.0,38.5,31.2,18.3,0002.3,0020.78,0034.56,0019.57
2021-08-31 16:17:00,,0824.1,4.98,0.00,29.5,28.0,00.0,38.5,31.3,18.4,0002.4,0021.11,0035.06,0019.81
2021-08-31 16:18:00,,0824.1,5.00,0.00,29.5,28.2,00.0,38.5,31.3,17.8,0002.5,0021.37,0035.49,0019.95
2021-08-31 16:19:00,,0824.1,4.99,0.00,29.6,28.4,00.0,38.5,31.4,17.8,0002.5,0021.56,0036.25,0020.08
2021-08-31 16:20:00,,0824.1,5.01,0.00,29.6,27.7,00.0,38.6,31.3,17.5,0002.5,0021.71,0036.66,0020.22
2021-08-31 16:21:00,,0824.1,4.99,0.00,29.4,26.2,00.0,38.5,30.9,16.9,0002.6,0021.80,0036.70,0020.29
2021-08-31 16:22:00,,0824.1,5.01,0.00,29.4,26.2,00.0,38.5,30.8,17.8,0002.7,0021.79,0036.08,0020.33
2021-08-31 16:23:00,,0824.1,4.99,0.00,29.3,26.7,00.0,38.5,30.9,17.1,0002.6,0021.75,0035.37,0020.31
2021-08-31 16:24:00,,0824.1,5.01,0.00,29.3,27.1,00.0,38.5,31.0,16.2,0002.6,0021.68,0034.30,0020.24
2021-08-31 16:25:00,,0824.1,5.00,0.00,29.3,27.5,00.0,38.4,31.1,16.9,0002.6,0021.55,0033.67,0020.13
2021-08-31 16:26:00,,0824.1,4.99,0.00,29.4,27.8,00.0,38.4,31.2,15.7,0002.5,0021.40,0032.97,0020.01
2021-08-31 16:27:00,,0824.1,5.01,0.00,29.4,28.1,00.0,38.4,31.3,15.9,0002.7,0021.16,0031.58,0019.82
2021-08-31 16:28:00,,0824.1,4.99,0.00,29.5,28.4,00.0,38.4,31.3,15.7,0002.7,0020.96,0031.83,0019.66
2021-08-31 16:29:00,,0824.2,5.01,0.00,29.5,28.4,00.0,38.5,31.4,15.8,0002.8,0020.77,0031.64,0019.49
2021-08-31 16:30:00,,0824.1,5.00,0.00,29.5,27.0,00.0,38.5,31.0,16.0,0002.9,0020.56,0030.95,0019.33
2021-08-31 16:31:00,,0824.2,5.00,0.00,29.3,26.1,00.0,38.4,30.7,16.1,0002.8,0020.42,0030.12,0019.19
2021-08-31 16:32:00,,0824.2,5.00,0.00,29.3,26.4,00.0,38.4,30.8,16.3,0002.7,0020.22,0029.65,0019.05
2021-08-31 16:33:00,,0824.2,5.00,0.00,29.3,26.8,00.0,38.4,30.9,16.6,0002.8,0020.04,0029.67,0018.88
2021-08-31 16:34:00,,0824.2,4.99,0.00,29.3,27.2,00.0,38.4,31.0,15.9,0002.9,0019.90,0028.95,0018.75
2021-08-31 16:35:00,,0824.3,5.01,0.00,29.3,27.6,00.0,38.4,31.1,15.9,0002.9,0019.80,0029.21,0018.66
2021-08-31 16:36:00,,0824.2,5.00,0.00,29.3,27.9,00.0,38.4,31.2,16.7,0002.9,0019.72,0029.60,0018.59
2021-08-31 16:37:00,,0824.2,4.99,0.00,29.4,28.2,00.0,38.4,31.3,17.1,0002.8,0019.68,0030.31,0018.56
2021-08-31 16:38:00,,0824.2,5.00,0.00,29.5,28.4,00.0,38.4,31.3,18.0,0002.8,0019.80,0031.52,0018.63
2021-08-31 16:39:00,,0824.2,5.01,0.00,29.5,28.5,00.0,38.4,31.4,17.9,0002.7,0019.88,0031.84,0018.71
2021-08-31 16:40:00,,0824.2,5.00,0.00,29.5,27.3,00.0,38.4,31.0,17.8,0002.4,0019.96,0033.30,0018.78
2021-08-31 16:41:00,,0824.3,4.99,0.00,29.3,26.1,00.0,38.4,30.7,16.1,0002.2,0020.13,0034.10,0018.88
2021-08-31 16:42:00,,0824.2,5.00,0.00,29.3,26.4,00.0,38.4,30.8,17.0,0002.4,0020.15,0034.28,0018.90
2021-08-31 16:43:00,,0824.2,5.01,0.00,29.3,26.8,00.0,38.4,30.9,17.7,0002.4,0020.25,0034.23,0018.96
2021-08-31 16:44:00,,0824.4,5.00,0.00,29.3,27.2,00.0,38.4,31.0,18.0,0002.2,0020.44,0034.37,0019.06
2021-08-31 16:45:00,,0824.3,4.99,0.00,29.3,27.6,00.0,38.4,31.1,18.2,0002.0,0020.55,0035.50,0019.12
2021-08-31 16:46:00,,0824.3,5.01,0.00,29.3,27.9,00.0,38.4,31.1,18.7,0001.8,0020.60,0035.35,0019.15
2021-08-31 16:47:00,,0824.2,5.00,0.00,29.4,28.2,00.0,38.4,31.2,19.2,0001.7,0020.61,0035.67,0019.16
2021-08-31 16:48:00,,0824.3,5.00,0.00,29.5,28.3,00.0,38.4,31.3,18.6,0001.9,0020.62,0035.16,0019.16
2021-08-31 16:49:00,,0824.2,5.00,0.00,29.4,27.2,00.0,38.4,31.0,18.9,0001.7,0020.60,0034.69,0019.14
2021-08-31 16:50:00,,0824.3,5.01,0.00,29.3,25.9,00.0,38.4,30.6,19.2,0001.8,0020.54,0032.99,0019.07
2021-08-31 16:51:00,,0824.2,5.00,0.00,29.2,26.2,00.0,38.4,30.7,19.1,0001.9,0020.52,0031.96,0019.03
2021-08-31 16:52:00,,0824.2,5.01,0.00,29.2,26.6,00.0,38.3,30.8,19.5,0002.1,0020.44,0031.09,0018.96
2021-08-31 16:53:00,,0824.2,5.00,0.00,29.2,27.1,00.0,38.3,30.9,19.8,0002.1,0020.47,0031.83,0018.94
2021-08-31 16:54:00,,0824.2,4.99,0.00,29.2,27.5,00.0,38.3,31.0,20.7,0002.0,0020.51,0033.01,0018.95
2021-08-31 16:55:00,,0824.3,5.01,0.00,29.3,27.8,00.0,38.3,31.1,21.1,0002.1,0020.52,0034.08,0018.91
2021-08-31 16:56:00,,0824.2,5.00,0.00,29.3,28.1,00.0,38.3,31.2,19.6,0002.2,0020.59,0033.81,0018.91
2021-08-31 16:57:00,,0824.2,4.99,0.00,29.4,28.3,00.0,38.3,31.2,19.7,0002.3,0020.59,0034.91,0018.91
2021-08-31 16:58:00,,0824.2,5.01,0.00,29.4,27.3,00.0,38.3,31.0,18.9,0002.5,0020.60,0035.18,0018.89
2021-08-31 16:59:00,,0824.2,4.99,0.00,29.2,25.9,00.0,38.3,30.6,18.6,0002.1,0020.63,0035.15,0018.86
